Time,TemperatureF,DewpointF,PressureIn,WindDirection,WindDirectionDegrees,WindSpeedMPH,WindSpeedGustMPH,Humidity,HourlyPrecipIn,Conditions,Clouds,dailyrainin,SolarRadiationWatts/m^2,SoftwareType,DateUTC
2013-01-01 00:00:00,28.0,22.0,-100.00,West,270,7.0,-999.0,75,-99.99,,,-99.99,0.000000,,2013-01-01 05:00:00,
2013-01-01 00:33:00,28.0,22.0,-100.00,West,270,7.0,-999.0,75,-99.99,,,-99.99,0.000000,,2013-01-01 05:33:00,
2013-01-01 00:42:00,28.0,22.0,-100.00,West,270,7.0,-999.0,75,-99.99,,,-99.99,0.000000,,2013-01-01 05:42:00,
2013-01-01 00:53:00,28.0,22.0,-100.00,West,270,7.0,-999.0,75,-99.99,,,-99.99,0.000000,,2013-01-01 05:53:00,
2013-01-01 01:00:00,27.0,19.0,-100.00,NNW,337,5.0,-999.0,73,-99.99,,,-99.99,0.000000,,2013-01-01 06:00:00,
2013-01-01 01:43:00,27.0,19.0,-100.00,NNW,337,5.0,-999.0,73,-99.99,,,-99.99,0.000000,,2013-01-01 06:43:00,
2013-01-01 01:52:00,27.0,19.0,-100.00,NNW,337,5.0,-999.0,73,-99.99,,,-99.99,0.000000,,2013-01-01 06:52:00,
2013-01-01 02:00:00,25.0,18.0,-100.00,South,180,3.0,-999.0,73,-99.99,,,-99.99,0.000000,,2013-01-01 07:00:00,
2013-01-01 02:42:00,25.0,18.0,-100.00,South,180,3.0,-999.0,73,-99.99,,,-99.99,0.000000,,2013-01-01 07:42:00,
2013-01-01 02:53:00,25.0,18.0,-100.00,South,180,3.0,-999.0,73,-99.99,,,-99.99,0.000000,,2013-01-01 07:53:00,
2013-01-01 03:00:00,25.0,19.0,-100.00,NW,315,4.0,-999.0,75,-99.99,,,-99.99,0.000000,,2013-01-01 08:00:00,
2013-01-01 03:42:00,25.0,19.0,-100.00,NW,315,4.0,-999.0,75,-99.99,,,-99.99,0.000000,,2013-01-01 08:42:00,
2013-01-01 03:53:00,25.0,19.0,-100.00,NW,315,4.0,-999.0,75,-99.99,,,-99.99,0.000000,,2013-01-01 08:53:00,
2013-01-01 04:00:00,26.0,19.0,-100.00,SW,225,5.0,-999.0,73,-99.99,,,-99.99,0.000000,,2013-01-01 09:00:00,
2013-01-01 04:43:00,26.0,19.0,-100.00,SW,225,5.0,-999.0,73,-99.99,,,-99.99,0.000000,,2013-01-01 09:43:00,
2013-01-01 04:52:00,26.0,19.0,-100.00,SW,225,5.0,-999.0,73,-99.99,,,-99.99,0.000000,,2013-01-01 09:52:00,
2013-01-01 05:00:00,25.0,18.0,-100.00,South,180,5.0,-999.0,72,-99.99,,,-99.99,0.000000,,2013-01-01 10:00:00,
2013-01-01 05:43:00,25.0,18.0,-100.00,South,180,5.0,-999.0,72,-99.99,,,-99.99,0.000000,,2013-01-01 10:43:00,
2013-01-01 05:53:00,25.0,18.0,-100.00,South,180,5.0,-999.0,72,-99.99,,,-99.99,0.000000,,2013-01-01 10:53:00,
2013-01-01 06:00:00,25.0,17.0,-100.00,WNW,292,5.0,-999.0,71,-99.99,,,-99.99,0.000000,,2013-01-01 11:00:00,
2013-01-01 06:43:00,25.0,17.0,-100.00,WNW,292,5.0,-999.0,71,-99.99,,,-99.99,0.000000,,2013-01-01 11:43:00,
2013-01-01 06:53:00,25.0,17.0,-100.00,WNW,292,5.0,-999.0,71,-99.99,,,-99.99,0.000000,,2013-01-01 11:53:00,
2013-01-01 07:00:00,23.0,15.0,-100.00,South,180,5.0,-999.0,70,-99.99,,,-99.99,0.000000,,2013-01-01 12:00:00,
2013-01-01 07:33:00,23.0,15.0,-100.00,South,180,5.0,-999.0,70,-99.99,,,-99.99,0.000000,,2013-01-01 12:33:00,
2013-01-01 07:43:00,23.0,15.0,-100.00,South,180,5.0,-999.0,70,-99.99,,,-99.99,0.000000,,2013-01-01 12:43:00,
2013-01-01 07:53:00,23.0,15.0,-100.00,South,180,5.0,-999.0,70,-99.99,,,-99.99,0.000000,,2013-01-01 12:53:00,
2013-01-01 08:00:00,18.0,10.0,-100.00,SE,135,4.0,-999.0,72,-99.99,,,-99.99,0.000000,,2013-01-01 13:00:00,
2013-01-01 08:43:00,18.0,10.0,-100.00,SE,135,4.0,-999.0,72,-99.99,,,-99.99,0.000000,,2013-01-01 13:43:00,
2013-01-01 08:53:00,18.0,10.0,-100.00,SE,135,4.0,-999.0,72,-99.99,,,-99.99,0.000000,,2013-01-01 13:53:00,
2013-01-01 09:00:00,15.0,8.0,-100.00,NW,315,2.0,-999.0,73,-99.99,,,-99.99,18.559999,,2013-01-01 14:00:00,
2013-01-01 09:33:00,15.0,8.0,-100.00,NW,315,2.0,-999.0,73,-99.99,,,-99.99,18.559999,,2013-01-01 14:33:00,
2013-01-01 09:43:00,15.0,8.0,-100.00,NW,315,2.0,-999.0,73,-99.99,,,-99.99,18.559999,,2013-01-01 14:43:00,
2013-01-01 09:53:00,15.0,8.0,-100.00,NW,315,2.0,-999.0,73,-99.99,,,-99.99,18.559999,,2013-01-01 14:53:00,
2013-01-01 10:00:00,16.0,8.0,-100.00,SW,225,2.0,-999.0,72,-99.99,,,-99.99,85.839996,,2013-01-01 15:00:00,
2013-01-01 10:33:00,16.0,8.0,-100.00,SW,225,2.0,-999.0,72,-99.99,,,-99.99,85.839996,,2013-01-01 15:33:00,
2013-01-01 10:43:00,16.0,8.0,-100.00,SW,225,2.0,-999.0,72,-99.99,,,-99.99,85.839996,,2013-01-01 15:43:00,
2013-01-01 10:53:00,16.0,8.0,-100.00,SW,225,2.0,-999.0,72,-99.99,,,-99.99,85.839996,,2013-01-01 15:53:00,
2013-01-01 11:00:00,22.0,12.0,-100.00,NNE,22,5.0,-999.0,66,-99.99,,,-99.99,225.039993,,2013-01-01 16:00:00,
2013-01-01 11:33:00,22.0,12.0,-100.00,NNE,22,5.0,-999.0,66,-99.99,,,-99.99,225.039993,,2013-01-01 16:33:00,
2013-01-01 11:43:00,22.0,12.0,-100.00,NNE,22,5.0,-999.0,66,-99.99,,,-99.99,225.039993,,2013-01-01 16:43:00,
2013-01-01 11:53:00,22.0,12.0,-100.00,NNE,22,5.0,-999.0,66,-99.99,,,-99.99,225.039993,,2013-01-01 16:53:00,
2013-01-01 12:00:00,25.0,11.0,-100.00,NNE,22,8.0,-999.0,55,-99.99,,,-99.99,400.200012,,2013-01-01 17:00:00,
2013-01-01 12:33:00,25.0,11.0,-100.00,NNE,22,8.0,-999.0,55,-99.99,,,-99.99,400.200012,,2013-01-01 17:33:00,
2013-01-01 12:43:00,25.0,11.0,-100.00,NNE,22,8.0,-999.0,55,-99.99,,,-99.99,400.200012,,2013-01-01 17:43:00,
2013-01-01 12:53:00,25.0,11.0,-100.00,NNE,22,8.0,-999.0,55,-99.99,,,-99.99,400.200012,,2013-01-01 17:53:00,
2013-01-01 13:00:00,25.0,11.0,-100.00,SW,225,7.0,-999.0,55,-99.99,,,-99.99,380.480011,,2013-01-01 18:00:00,
2013-01-01 13:33:00,25.0,11.0,-100.00,SW,225,7.0,-999.0,55,-99.99,,,-99.99,380.480011,,2013-01-01 18:33:00,
2013-01-01 13:43:00,25.0,11.0,-100.00,SW,225,7.0,-999.0,55,-99.99,,,-99.99,380.480011,,2013-01-01 18:43:00,
2013-01-01 13:53:00,25.0,11.0,-100.00,SW,225,7.0,-999.0,55,-99.99,,,-99.99,380.480011,,2013-01-01 18:53:00,
2013-01-01 14:00:00,25.0,10.0,-100.00,WSW,247,5.0,-999.0,53,-99.99,,,-99.99,290.000000,,2013-01-01 19:00:00,
2013-01-01 14:43:00,25.0,10.0,-100.00,WSW,247,5.0,-999.0,53,-99.99,,,-99.99,290.000000,,2013-01-01 19:43:00,
2013-01-01 14:53:00,25.0,10.0,-100.00,WSW,247,5.0,-999.0,53,-99.99,,,-99.99,290.000000,,2013-01-01 19:53:00,
2013-01-01 15:00:00,27.0,9.0,-100.00,SSW,202,6.0,-999.0,46,-99.99,,,-99.99,354.959991,,2013-01-01 20:00:00,
2013-01-01 15:43:00,27.0,9.0,-100.00,SSW,202,6.0,-999.0,46,-99.99,,,-99.99,354.959991,,2013-01-01 20:43:00,
2013-01-01 15:53:00,27.0,9.0,-100.00,SSW,202,6.0,-999.0,46,-99.99,,,-99.99,354.959991,,2013-01-01 20:53:00,
2013-01-01 16:00:00,27.0,9.0,-100.00,West,270,3.0,-999.0,45,-99.99,,,-99.99,244.759995,,2013-01-01 21:00:00,
2013-01-01 16:43:00,27.0,9.0,-100.00,West,270,3.0,-999.0,45,-99.99,,,-99.99,244.759995,,2013-01-01 21:43:00,
2013-01-01 16:53:00,27.0,9.0,-100.00,West,270,3.0,-999.0,45,-99.99,,,-99.99,244.759995,,2013-01-01 21:53:00,
2013-01-01 17:00:00,26.0,7.0,-100.00,NW,315,0.0,-999.0,44,-99.99,,,-99.99,92.800003,,2013-01-01 22:00:00,
2013-01-01 17:43:00,26.0,7.0,-100.00,NW,315,0.0,-999.0,44,-99.99,,,-99.99,92.800003,,2013-01-01 22:43:00,
2013-01-01 17:53:00,26.0,7.0,-100.00,NW,315,0.0,-999.0,44,-99.99,,,-99.99,92.800003,,2013-01-01 22:53:00,
2013-01-01 18:00:00,11.0,1.0,-100.00,WNW,292,1.0,-999.0,63,-99.99,,,-99.99,3.480000,,2013-01-01 23:00:00,
2013-01-01 18:33:00,11.0,1.0,-100.00,WNW,292,1.0,-999.0,63,-99.99,,,-99.99,3.480000,,2013-01-01 23:33:00,
2013-01-01 18:42:00,11.0,1.0,-100.00,WNW,292,1.0,-999.0,63,-99.99,,,-99.99,3.480000,,2013-01-01 23:42:00,
2013-01-01 18:53:00,11.0,1.0,-100.00,WNW,292,1.0,-999.0,63,-99.99,,,-99.99,3.480000,,2013-01-01 23:53:00,
2013-01-01 19:00:00,7.0,2.0,-100.00,SW,225,0.0,-999.0,78,-99.99,,,-99.99,0.000000,,2013-01-02 00:00:00,
2013-01-01 19:43:00,7.0,2.0,-100.00,SW,225,0.0,-999.0,78,-99.99,,,-99.99,0.000000,,2013-01-02 00:43:00,
2013-01-01 19:53:00,7.0,2.0,-100.00,SW,225,0.0,-999.0,78,-99.99,,,-99.99,0.000000,,2013-01-02 00:53:00,
2013-01-01 20:00:00,5.0,0.0,-100.00,SW,225,0.0,-999.0,82,-99.99,,,-99.99,0.000000,,2013-01-02 01:00:00,
2013-01-01 20:33:00,5.0,0.0,-100.00,SW,225,0.0,-999.0,82,-99.99,,,-99.99,0.000000,,2013-01-02 01:33:00,
2013-01-01 20:42:00,5.0,0.0,-100.00,SW,225,0.0,-999.0,82,-99.99,,,-99.99,0.000000,,2013-01-02 01:42:00,
2013-01-01 20:53:00,5.0,0.0,-100.00,SW,225,0.0,-999.0,82,-99.99,,,-99.99,0.000000,,2013-01-02 01:53:00,
2013-01-01 21:00:00,2.0,-1.0,-100.00,WSW,247,0.0,-999.0,84,-99.99,,,-99.99,0.000000,,2013-01-02 02:00:00,
2013-01-01 21:32:00,2.0,-1.0,-100.00,WSW,247,0.0,-999.0,84,-99.99,,,-99.99,0.000000,,2013-01-02 02:32:00,
2013-01-01 21:43:00,2.0,-1.0,-100.00,WSW,247,0.0,-999.0,84,-99.99,,,-99.99,0.000000,,2013-01-02 02:43:00,
2013-01-01 21:53:00,2.0,-1.0,-100.00,WSW,247,0.0,-999.0,84,-99.99,,,-99.99,0.000000,,2013-01-02 02:53:00,
2013-01-01 22:00:00,5.0,2.0,-100.00,WSW,247,0.0,-999.0,87,-99.99,,,-99.99,0.000000,,2013-01-02 03:00:00,
2013-01-01 22:42:00,5.0,2.0,-100.00,WSW,247,0.0,-999.0,87,-99.99,,,-99.99,0.000000,,2013-01-02 03:42:00,
2013-01-01 22:53:00,5.0,2.0,-100.00,WSW,247,0.0,-999.0,87,-99.99,,,-99.99,0.000000,,2013-01-02 03:53:00,
2013-01-01 23:00:00,10.0,6.0,-100.00,SW,225,0.0,-999.0,84,-99.99,,,-99.99,0.000000,,2013-01-02 04:00:00,
2013-01-01 23:33:00,10.0,6.0,-100.00,SW,225,0.0,-999.0,84,-99.99,,,-99.99,0.000000,,2013-01-02 04:33:00,
2013-01-01 23:42:00,10.0,6.0,-100.00,SW,225,0.0,-999.0,84,-99.99,,,-99.99,0.000000,,2013-01-02 04:42:00,
2013-01-01 23:53:00,10.0,6.0,-100.00,SW,225,0.0,-999.0,84,-99.99,,,-99.99,0.000000,,2013-01-02 04:53:00,